| time (UTC) | temp F | wind direction | speed MPH | gust MPH | rain 1hr in | rain 24hr in | rain mn in | humidity % | barometer mb |
| 20260509224548 | 57 | 55 | 0.0 | 1.0 | 0.01 | 0.03 | 0.03 | 95 | 1010.6 |
| 20260509223548 | 57 | 54 | 0.0 | 1.0 | 0.01 | 0.03 | 0.03 | 95 | 1010.4 |
| 20260509222549 | 57 | 55 | 0.0 | 1.0 | 0.01 | 0.03 | 0.03 | 95 | 1010.4 |
| 20260509221547 | 57 | 64 | 0.0 | 2.0 | 0.02 | 0.03 | 0.03 | 94 | 1010.6 |
| 20260509220546 | 57 | 49 | 0.0 | 1.0 | 0.03 | 0.03 | 0.03 | 96 | 1010.7 |
| 20260509215546 | 57 | 167 | 0.0 | 0.0 | 0.03 | 0.03 | 0.03 | 95 | 1010.7 |
| 20260509214547 | 57 | 167 | 0.0 | 0.0 | 0.02 | 0.02 | 0.02 | 94 | 1011.1 |
| 20260509213546 | 57 | 167 | 0.0 | 0.0 | 0.02 | 0.02 | 0.02 | 92 | 1011.4 |
| 20260509212548 | 58 | 167 | 0.0 | 0.0 | 0.02 | 0.02 | 0.02 | 90 | 1010.9 |
| 20260509211540 | 58 | 167 | 0.0 | 2.0 | 0.00 | 0.00 | 0.00 | 87 | 1010.8 |
| 20260509204541 | 59 | 242 | 0.0 | 1.0 | 0.00 | 0.00 | 0.00 | 85 | 1010.6 |
| 20260509203541 | 60 | 69 | 0.0 | 3.0 | 0.00 | 0.00 | 0.00 | 84 | 1010.8 |
| 20260509202540 | 60 | 69 | 0.0 | 2.0 | 0.00 | 0.00 | 0.00 | 84 | 1010.6 |
| 20260509201539 | 60 | 166 | 0.0 | 2.0 | 0.00 | 0.00 | 0.00 | 85 | 1010.5 |
| 20260509200541 | 60 | 228 | 1.0 | 4.0 | 0.00 | 0.00 | 0.00 | 83 | 1010.7 |
| 20260509195542 | 59 | 225 | 1.0 | 6.0 | 0.00 | 0.00 | 0.00 | 84 | 1010.8 |
| 20260509194541 | 59 | 335 | 1.0 | 5.0 | 0.00 | 0.00 | 0.00 | 84 | 1011.0 |
| 20260509193540 | 60 | 181 | 0.0 | 3.0 | 0.00 | 0.00 | 0.00 | 84 | 1011.1 |
| 20260509191539 | 60 | 182 | 1.0 | 5.0 | 0.00 | 0.00 | 0.00 | 83 | 1011.2 |
| 20260509190542 | 61 | 304 | 0.0 | 2.0 | 0.00 | 0.00 | 0.00 | 82 | 1011.3 |
| 20260509184538 | 61 | 200 | 0.0 | 3.0 | 0.00 | 0.00 | 0.00 | 81 | 1011.2 |
| 20260509182534 | 61 | 259 | 0.0 | 2.0 | 0.00 | 0.00 | 0.00 | 80 | 1011.1 |
| 20260509181534 | 62 | 321 | 1.0 | 6.0 | 0.00 | 0.00 | 0.00 | 81 | 1011.2 |
| 20260509175532 | 62 | 219 | 2.0 | 6.0 | 0.00 | 0.00 | 0.00 | 78 | 1011.3 |
| 20260509174531 | 63 | 231 | 3.0 | 8.0 | 0.00 | 0.00 | 0.00 | 76 | 1011.0 |
| 20260509172530 | 65 | 237 | 2.0 | 8.0 | 0.00 | 0.00 | 0.00 | 71 | 1011.1 |
| 20260509171529 | 65 | 221 | 2.0 | 7.0 | 0.00 | 0.00 | 0.00 | 70 | 1011.0 |
| 20260509170529 | 66 | 224 | 1.0 | 6.0 | 0.00 | 0.00 | 0.00 | 72 | 1010.8 |
| 20260509165530 | 66 | 281 | 2.0 | 9.0 | 0.00 | 0.00 | 0.00 | 70 | 1011.0 |
| 20260509164529 | 67 | 257 | 3.0 | 11.0 | 0.00 | 0.00 | 0.00 | 67 | 1011.0 |
| 20260509163529 | 67 | 160 | 4.0 | 11.0 | 0.00 | 0.00 | 0.00 | 68 | 1011.0 |
| 20260509162530 | 68 | 280 | 3.0 | 10.0 | 0.00 | 0.00 | 0.00 | 70 | 1011.1 |
| 20260509161529 | 67 | 269 | 2.0 | 8.0 | 0.00 | 0.00 | 0.00 | 68 | 1011.1 |
| 20260509160528 | 67 | 30 | 2.0 | 9.0 | 0.00 | 0.00 | 0.00 | 70 | 1011.1 |
| 20260509154523 | 65 | 285 | 2.0 | 8.0 | 0.00 | 0.00 | 0.00 | 73 | 1011.6 |
| 20260509153525 | 65 | 169 | 1.0 | 4.0 | 0.00 | 0.00 | 0.00 | 73 | 1011.7 |
| 20260509152523 | 64 | 252 | 0.0 | 1.0 | 0.00 | 0.00 | 0.00 | 76 | 1011.8 |
| 20260509151522 | 64 | 240 | 1.0 | 4.0 | 0.00 | 0.00 | 0.00 | 77 | 1011.8 |
| 20260509150524 | 64 | 247 | 1.0 | 4.0 | 0.00 | 0.00 | 0.00 | 77 | 1011.7 |
| 20260509145518 | 64 | 208 | 1.0 | 4.0 | 0.00 | 0.00 | 0.00 | 77 | 1011.8 |
| 20260509143520 | 62 | 204 | 1.0 | 5.0 | 0.00 | 0.00 | 0.00 | 79 | 1011.7 |
| 20260509142519 | 62 | 217 | 0.0 | 4.0 | 0.00 | 0.00 | 0.00 | 80 | 1011.9 |
| 20260509141518 | 61 | 131 | 0.0 | 1.0 | 0.00 | 0.00 | 0.00 | 81 | 1011.9 |
| 20260509140519 | 60 | 188 | 0.0 | 2.0 | 0.00 | 0.00 | 0.00 | 83 | 1011.9 |
| 20260509135519 | 60 | 155 | 0.0 | 3.0 | 0.00 | 0.00 | 0.00 | 82 | 1011.9 |
| 20260509134519 | 59 | 257 | 0.0 | 2.0 | 0.00 | 0.00 | 0.00 | 84 | 1011.9 |
| 20260509133519 | 58 | 219 | 0.0 | 1.0 | 0.00 | 0.00 | 0.00 | 85 | 1011.9 |
| 20260509132512 | 58 | 140 | 0.0 | 0.0 | 0.00 | 0.00 | 0.00 | 85 | 1011.9 |
| 20260509131511 | 57 | 140 | 0.0 | 2.0 | 0.00 | 0.00 | 0.00 | 84 | 1012.0 |
| 20260509130511 | 57 | 199 | 0.0 | 0.0 | 0.00 | 0.00 | 0.00 | 86 | 1012.0 |
| 20260509125511 | 56 | 144 | 0.0 | 0.0 | 0.00 | 0.00 | 0.00 | 87 | 1012.0 |
| 20260509124510 | 55 | 184 | 0.0 | 1.0 | 0.00 | 0.00 | 0.00 | 89 | 1012.0 |
| 20260509123510 | 54 | 236 | 0.0 | 0.0 | 0.00 | 0.00 | 0.00 | 92 | 1012.0 |
| 20260509122513 | 53 | 236 | 0.0 | 0.0 | 0.00 | 0.00 | 0.00 | 95 | 1012.0 |
| 20260509121510 | 53 | 236 | 0.0 | 0.0 | 0.00 | 0.00 | 0.00 | 95 | 1012.2 |
| 20260509120514 | 52 | 236 | 0.0 | 0.0 | 0.00 | 0.00 | 0.00 | 97 | 1012.1 |
| 20260509115508 | 52 | 236 | 0.0 | 0.0 | 0.00 | 0.00 | 0.00 | 97 | 1012.1 |
| 20260509114504 | 51 | 236 | 0.0 | 0.0 | 0.00 | 0.00 | 0.00 | 98 | 1012.3 |
| 20260509113505 | 51 | 236 | 0.0 | 0.0 | 0.00 | 0.00 | 0.00 | 98 | 1012.2 |
| 20260509112506 | 50 | 236 | 0.0 | 0.0 | 0.00 | 0.00 | 0.00 | 98 | 1012.1 |
| 20260509111505 | 50 | 236 | 0.0 | 0.0 | 0.00 | 0.00 | 0.00 | 97 | 1012.3 |
| 20260509110505 | 49 | 236 | 0.0 | 0.0 | 0.00 | 0.00 | 0.00 | 97 | 1012.2 |
| 20260509105504 | 49 | 236 | 0.0 | 0.0 | 0.00 | 0.00 | 0.00 | 97 | 1012.1 |
| 20260509103504 | 49 | 236 | 0.0 | 0.0 | 0.00 | 0.00 | 0.00 | 97 | 1012.2 |
| 20260509102501 | 49 | 236 | 0.0 | 0.0 | 0.00 | 0.00 | 0.00 | 97 | 1012.1 |
| 20260509101458 | 49 | 236 | 0.0 | 0.0 | 0.00 | 0.00 | 0.00 | 97 | 1012.0 |
| 20260509100500 | 48 | 236 | 0.0 | 0.0 | 0.00 | 0.00 | 0.00 | 96 | 1012.0 |
| 20260509095459 | 48 | 236 | 0.0 | 0.0 | 0.00 | 0.00 | 0.00 | 96 | 1012.0 |
| 20260509094457 | 48 | 236 | 0.0 | 0.0 | 0.00 | 0.00 | 0.00 | 96 | 1012.1 |
| 20260509092451 | 49 | 236 | 0.0 | 0.0 | 0.00 | 0.00 | 0.00 | 96 | 1012.0 |
| 20260509091450 | 49 | 236 | 0.0 | 0.0 | 0.00 | 0.00 | 0.00 | 96 | 1012.1 |
| 20260509084451 | 48 | 236 | 0.0 | 0.0 | 0.00 | 0.00 | 0.00 | 96 | 1012.1 |
| 20260509083451 | 48 | 236 | 0.0 | 0.0 | 0.00 | 0.00 | 0.00 | 96 | 1012.0 |
| 20260509082451 | 48 | 236 | 0.0 | 0.0 | 0.00 | 0.00 | 0.00 | 95 | 1012.0 |
| 20260509080448 | 48 | 236 | 0.0 | 0.0 | 0.00 | 0.00 | 0.00 | 95 | 1012.2 |
| 20260509074445 | 49 | 236 | 0.0 | 0.0 | 0.00 | 0.00 | 0.00 | 94 | 1012.3 |
| 20260509073446 | 49 | 236 | 0.0 | 0.0 | 0.00 | 0.00 | 0.00 | 93 | 1012.1 |
| 20260509072446 | 50 | 236 | 0.0 | 0.0 | 0.00 | 0.00 | 0.00 | 92 | 1012.2 |
| 20260509071446 | 51 | 236 | 0.0 | 0.0 | 0.00 | 0.00 | 0.00 | 92 | 1012.0 |
| 20260509070444 | 51 | 236 | 0.0 | 0.0 | 0.00 | 0.00 | 0.00 | 92 | 1012.2 |
| 20260509065445 | 51 | 236 | 0.0 | 0.0 | 0.00 | 0.00 | 0.00 | 92 | 1012.4 |
| 20260509064445 | 51 | 236 | 0.0 | 0.0 | 0.00 | 0.00 | 0.00 | 91 | 1012.5 |
| 20260509062438 | 51 | 236 | 0.0 | 0.0 | 0.00 | 0.00 | 0.00 | 90 | 1012.5 |
| 20260509061439 | 51 | 236 | 0.0 | 0.0 | 0.00 | 0.00 | 0.00 | 90 | 1012.7 |
| 20260509055439 | 51 | 236 | 0.0 | 0.0 | 0.00 | 0.00 | 0.00 | 89 | 1012.9 |
| 20260509054438 | 51 | 236 | 0.0 | 0.0 | 0.00 | 0.00 | 0.00 | 89 | 1012.9 |
| 20260509053437 | 51 | 236 | 0.0 | 0.0 | 0.00 | 0.00 | 0.00 | 88 | 1012.9 |
| 20260509052438 | 52 | 236 | 0.0 | 0.0 | 0.00 | 0.00 | 0.00 | 88 | 1012.9 |
| 20260509051439 | 52 | 236 | 0.0 | 0.0 | 0.00 | 0.00 | 0.00 | 87 | 1012.9 |
| 20260509050429 | 52 | 236 | 0.0 | 0.0 | 0.00 | 0.00 | 0.00 | 87 | 1013.1 |
| 20260509045429 | 52 | 236 | 0.0 | 0.0 | 0.00 | 0.00 | 0.00 | 86 | 1013.3 |
| 20260509044428 | 52 | 236 | 0.0 | 0.0 | 0.00 | 0.00 | 0.00 | 87 | 1012.9 |
| 20260509043428 | 52 | 236 | 0.0 | 0.0 | 0.00 | 0.00 | 0.00 | 86 | 1012.9 |
| 20260509041428 | 52 | 233 | 0.0 | 2.0 | 0.00 | 0.00 | 0.00 | 86 | 1013.0 |
| 20260509040429 | 53 | 246 | 0.0 | 0.0 | 0.00 | 0.00 | 0.00 | 85 | 1012.8 |
| 20260509035426 | 53 | 239 | 0.0 | 0.0 | 0.00 | 0.00 | 0.00 | 84 | 1012.7 |
| 20260509033419 | 53 | 239 | 0.0 | 0.0 | 0.00 | 0.00 | 0.00 | 85 | 1012.9 |
| 20260509032421 | 54 | 239 | 0.0 | 0.0 | 0.00 | 0.00 | 0.00 | 84 | 1012.9 |
| 20260509030418 | 54 | 239 | 0.0 | 0.0 | 0.00 | 0.00 | 0.00 | 83 | 1012.8 |
| 20260509025420 | 54 | 239 | 0.0 | 0.0 | 0.00 | 0.00 | 0.00 | 83 | 1012.8 |
| 20260509024415 | 54 | 239 | 0.0 | 0.0 | 0.00 | 0.00 | 0.00 | 84 | 1012.9 |
| 20260509022412 | 54 | 239 | 0.0 | 0.0 | 0.00 | 0.00 | 0.00 | 84 | 1013.0 |
| 20260509020412 | 54 | 285 | 0.0 | 0.0 | 0.00 | 0.00 | 0.00 | 83 | 1012.8 |
| 20260509015413 | 55 | 285 | 0.0 | 0.0 | 0.00 | 0.00 | 0.00 | 80 | 1012.8 |
| 20260509014413 | 55 | 285 | 0.0 | 0.0 | 0.00 | 0.00 | 0.00 | 79 | 1012.7 |
| 20260509013412 | 55 | 285 | 0.0 | 0.0 | 0.00 | 0.00 | 0.00 | 78 | 1012.8 |
| 20260509011414 | 55 | 285 | 0.0 | 0.0 | 0.00 | 0.00 | 0.00 | 75 | 1012.4 |
| 20260509005407 | 56 | 285 | 0.0 | 0.0 | 0.00 | 0.00 | 0.00 | 74 | 1011.9 |
| 20260509004404 | 56 | 285 | 0.0 | 0.0 | 0.00 | 0.00 | 0.00 | 72 | 1011.7 |
| 20260509003404 | 57 | 285 | 0.0 | 0.0 | 0.00 | 0.00 | 0.00 | 71 | 1011.6 |
| 20260509002404 | 57 | 285 | 0.0 | 0.0 | 0.00 | 0.00 | 0.00 | 68 | 1011.7 |
| 20260509001405 | 58 | 285 | 0.0 | 0.0 | 0.00 | 0.00 | 0.00 | 71 | 1011.6 |
| 20260508235405 | 59 | 285 | 0.0 | 0.0 | 0.00 | 0.00 | 0.00 | 65 | 1011.5 |
| 20260508234405 | 59 | 285 | 0.0 | 0.0 | 0.00 | 0.00 | 0.00 | 63 | 1011.3 |
| 20260508233359 | 60 | 285 | 0.0 | 0.0 | 0.00 | 0.00 | 0.00 | 60 | 1011.3 |
| 20260508232358 | 61 | 285 | 0.0 | 0.0 | 0.00 | 0.00 | 0.00 | 60 | 1011.4 |
| 20260508231359 | 61 | 285 | 0.0 | 2.0 | 0.00 | 0.00 | 0.00 | 60 | 1011.3 |
| 20260508230359 | 62 | 232 | 0.0 | 3.0 | 0.00 | 0.00 | 0.00 | 58 | 1011.3 |